User: anonymous   Login
Location: Unspecified
(0.0000°N, 0.0000°E)
Time: 07:40:18
(UTC+00:00)
Language:

NOSS 2-2 (D) - Orbit

View from above orbital plane
View from above orbital plane
View from above satellite
View from above satellite

Ground track
Ground track

The orbit data is extracted from the following two-line orbital elements,

1 21808U 91076D   21332.72577915 0.00000700  00000-0  11410-3 0    06
2 21808  63.3317 209.5385 0866122  46.5844 313.4156 13.41701259    08
Epoch (UTC): 28 November 2021 17:25:07
Eccentricity: 0.0866122
inclination: 63.3317°
perigee height: 455 km
apogee height: 1751 km
right ascension of ascending node: 209.5385°
argument of perigee: 46.5844°
revolutions per day: 13.41701259
mean anomaly at epoch: 313.4156°
orbit number at epoch: 0

The dashed part of the orbit path shows where the satellite is in the earth's shadow,  

DLR